Location: Benque
(43.2594°N, 0.9178°E)
Time: 18:06:08
(UTC+00:00)

Cosmos 1703 - Pass Details

Date: 24 January 2020
Orbit: 524 x 541 km, 82.5° (Epoch: 22 February)

Event Time Altitude Azimuth Distance (km) Brightness Sun altitude
Rises 18:17:22 0° 183° (S) 2,682 7.0 -14.6°
Reaches altitude 10° 18:19:30 10° 182° (S) 1,797 6.1 -15.0°
Maximum altitude 18:23:27 77° 97° (E) 561 3.2 -15.7°
Drops below altitude 10° 18:27:26 10° 11° (N) 1,814 5.7 -16.4°
Enters shadow 18:28:35 - 11° (N) 2,291 6.3 -16.6°
